EI7IG-1 Weather Reports


Display with metric or nautical units.
time (UTC)temp
F
wind
direction
speed
MPH
gust
MPH
rain 1hr
in
rain 24hr
in
rain mn
in
humidity
%
barometer
mb
20180922045149 49 289 0.0 0.0 0.00 0.00 0.00 89 1020.0
20180922044149 49 10 0.0 0.0 0.00 0.00 0.00 88 1020.0
20180922043149 50 20 0.0 0.0 0.00 0.00 0.00 87 1020.1
20180922042149 50 20 0.0 0.0 0.00 0.00 0.00 85 1020.1
20180922041150 50 20 0.0 0.0 0.00 0.00 0.00 84 1020.2
20180922040149 50 10 0.0 0.0 0.00 0.00 0.00 85 1020.3
20180922035149 50 9 0.0 1.0 0.00 0.00 0.00 85 1020.4
20180922034149 49 27 0.0 0.0 0.00 0.00 0.00 86 1020.5
20180922033150 49 16 0.0 0.0 0.00 0.00 0.00 87 1020.4
20180922032149 49 322 0.0 0.0 0.00 0.00 0.00 88 1020.4
20180922031149 49 323 0.0 0.0 0.00 0.00 0.00 87 1020.3
20180922030149 49 322 0.0 0.0 0.00 0.00 0.00 87 1020.6
20180922025149 49 322 0.0 0.0 0.00 0.00 0.00 86 1020.7
20180922024149 49 322 0.0 0.0 0.00 0.00 0.00 86 1020.6
20180922023149 50 8 0.0 0.0 0.00 0.00 0.00 85 1020.8
20180922022149 50 8 0.0 0.0 0.00 0.00 0.00 85 1020.7
20180922021149 50 345 0.0 0.0 0.00 0.00 0.00 84 1020.7
20180922020153 49 16 1.0 2.0 0.00 0.00 0.00 85 1020.7
20180922015149 49 5 0.0 0.0 0.00 0.00 0.00 87 1020.9
20180922014149 49 4 0.0 0.0 0.00 0.00 0.00 87 1020.9
20180922013152 49 5 0.0 0.0 0.00 0.00 0.00 86 1021.0
20180922012149 49 5 0.0 0.0 0.00 0.00 0.00 86 1021.0
20180922011149 50 4 0.0 0.0 0.00 0.00 0.00 85 1020.9
20180922010149 50 4 0.0 0.0 0.00 0.00 0.00 85 1021.1
20180922005149 50 5 0.0 0.0 0.00 0.00 0.00 84 1021.1
20180922004149 50 3 0.0 1.0 0.00 0.00 0.00 84 1020.9
20180922003152 50 17 0.0 4.0 0.00 0.00 0.00 83 1020.9
20180922002152 50 20 0.0 1.0 0.00 0.00 0.00 84 1021.1
20180922001149 50 25 0.0 0.0 0.00 0.00 0.00 85 1020.9
20180922000149 50 22 0.0 2.0 0.00 0.00 0.00 86 1021.0
20180921235149 50 18 0.0 3.0 0.00 0.00 0.00 86 1021.0
20180921234149 50 41 0.0 2.0 0.00 0.00 0.00 86 1021.1
20180921233149 50 33 0.0 0.0 0.00 0.00 0.00 86 1021.1
20180921232149 51 299 0.0 1.0 0.00 0.00 0.00 85 1021.1
20180921231149 51 21 0.0 1.0 0.00 0.00 0.00 85 1021.1
20180921230149 50 27 0.0 0.0 0.00 0.00 0.00 85 1021.2
20180921225149 50 28 0.0 2.0 0.00 0.00 0.00 86 1021.1
20180921224149 50 12 0.0 1.0 0.00 0.00 0.00 86 1021.1
20180921223149 50 13 0.0 1.0 0.00 0.00 0.00 86 1021.4
20180921222149 50 21 0.0 1.0 0.00 0.00 0.00 88 1021.1
20180921221149 49 7 0.0 0.0 0.00 0.00 0.00 89 1021.1
20180921220149 49 20 0.0 1.0 0.00 0.00 0.00 90 1021.0
20180921215149 49 351 0.0 1.0 0.00 0.00 0.00 90 1020.8
20180921214149 48 320 0.0 0.0 0.00 0.00 0.00 89 1020.6
20180921213149 49 288 0.0 0.0 0.00 0.00 0.00 87 1020.8
20180921212149 49 289 0.0 0.0 0.00 0.00 0.00 85 1020.8
20180921211149 50 16 0.0 1.0 0.00 0.00 0.00 85 1020.6
20180921210153 50 35 0.0 1.0 0.00 0.00 0.00 86 1020.4
20180921205151 49 14 0.0 3.0 0.00 0.00 0.00 88 1020.4
20180921204149 50 13 0.0 1.0 0.00 0.00 0.00 87 1020.4
20180921203149 50 32 0.0 1.0 0.00 0.00 0.00 87 1020.3
20180921202149 50 26 0.0 2.0 0.00 0.00 0.00 87 1020.3
20180921201152 50 18 1.0 4.0 0.00 0.00 0.00 87 1020.3
20180921200149 50 29 1.0 3.0 0.00 0.00 0.00 87 1020.2
20180921195149 50 13 1.0 2.0 0.00 0.00 0.00 86 1020.2
20180921194149 50 12 0.0 4.0 0.00 0.00 0.00 86 1020.1
20180921193149 51 3 0.0 1.0 0.00 0.02 0.00 85 1019.8
20180921192152 51 24 0.0 1.0 0.00 0.03 0.00 84 1019.7
20180921191149 51 27 0.0 1.0 0.00 0.03 0.00 83 1019.6
20180921190149 51 15 0.0 1.0 0.00 0.04 0.00 83 1019.4
20180921185149 52 352 0.0 1.0 0.00 0.04 0.00 81 1019.3
20180921184149 53 12 0.0 2.0 0.00 0.04 0.00 79 1019.2
20180921183152 53 33 0.0 1.0 0.00 0.05 0.00 77 1019.1
20180921182149 54 14 0.0 2.0 0.00 0.05 0.00 76 1018.8
20180921181149 54 342 0.0 1.0 0.00 0.05 0.00 76 1018.6
20180921180149 54 3 0.0 4.0 0.00 0.05 0.00 75 1018.4
20180921175149 55 36 1.0 5.0 0.00 0.06 0.00 74 1018.3
20180921174149 56 20 0.0 6.0 0.00 0.06 0.00 72 1018.2
20180921173149 57 13 0.0 6.0 0.00 0.10 0.00 71 1018.0
20180921172149 57 25 1.0 5.0 0.00 0.17 0.00 70 1018.0
20180921171149 57 22 2.0 6.0 0.00 0.28 0.00 70 1017.9
20180921170155 57 356 4.0 9.0 0.00 0.29 0.00 69 1017.7
20180921165152 57 2 0.0 11.0 0.00 0.31 0.00 69 1017.6
20180921164149 58 10 5.0 11.0 0.00 0.40 0.00 68 1017.5
20180921163149 57 23 2.0 12.0 0.00 0.51 0.00 69 1017.4
20180921162149 58 11 9.0 11.0 0.00 0.54 0.00 66 1017.5
20180921161156 58 33 0.0 10.0 0.00 0.66 0.00 68 1017.4
20180921160149 58 41 2.0 10.0 0.00 0.66 0.00 68 1017.2
20180921155149 58 27 3.0 10.0 0.00 0.67 0.00 68 1017.0
20180921154152 60 25 4.0 15.0 0.00 0.67 0.00 64 1016.9
20180921153149 60 3 0.0 12.0 0.00 0.67 0.00 63 1016.5
20180921152149 59 340 1.0 13.0 0.00 0.67 0.00 63 1016.4
20180921151149 59 347 8.0 18.0 0.00 0.67 0.00 66 1016.1
20180921150149 59 27 11.0 23.0 0.00 0.67 0.00 64 1015.7
20180921145149 59 32 9.0 13.0 0.00 0.67 0.00 65 1015.6
20180921144149 59 329 5.0 18.0 0.00 0.67 0.00 65 1015.7
20180921143149 58 355 11.0 21.0 0.00 0.67 0.00 64 1015.5
20180921142149 57 15 8.0 18.0 0.00 0.68 0.00 68 1015.4
20180921141150 57 13 9.0 17.0 0.00 0.69 0.00 69 1015.6
20180921140152 56 19 11.0 18.0 0.00 0.72 0.00 73 1015.8
20180921135149 56 21 11.0 22.0 0.00 0.73 0.00 71 1015.8
20180921134149 58 5 11.0 20.0 0.00 0.74 0.00 68 1015.4
20180921133152 58 20 7.0 19.0 0.00 0.74 0.00 66 1015.1
20180921132152 58 15 10.0 21.0 0.00 0.74 0.00 70 1015.0
20180921131149 57 13 12.0 18.0 0.00 0.74 0.00 70 1015.0
20180921130149 57 28 14.0 20.0 0.00 0.77 0.00 70 1015.0
20180921125149 57 41 10.0 18.0 0.00 0.85 0.00 73 1015.0
20180921124149 56 27 9.0 19.0 0.00 0.92 0.00 74 1014.9
20180921123152 56 13 6.0 15.0 0.00 0.97 0.00 72 1014.9
20180921122149 56 33 11.0 16.0 0.00 1.00 0.00 71 1014.7
20180921121152 58 39 6.0 16.0 0.00 1.04 0.00 72 1014.5
20180921120149 56 18 14.0 17.0 0.00 1.08 0.00 75 1014.2
20180921115149 55 355 4.0 12.0 0.00 1.09 0.00 75 1014.0
20180921114150 56 15 7.0 17.0 0.00 1.11 0.00 71 1014.1
20180921113152 57 20 7.0 18.0 0.00 1.14 0.00 69 1013.7
20180921112149 57 48 0.0 19.0 0.00 1.15 0.00 70 1013.6
20180921111152 56 21 4.0 20.0 0.00 1.17 0.00 69 1013.3
20180921110149 56 345 7.0 15.0 0.00 1.18 0.00 73 1013.0
20180921105149 56 15 8.0 13.0 0.00 1.21 0.00 74 1012.9
20180921104149 56 320 13.0 17.0 0.00 1.22 0.00 74 1012.6
20180921103149 55 22 10.0 17.0 0.00 1.24 0.00 74 1012.5
20180921102149 55 16 3.0 14.0 0.00 1.26 0.00 76 1012.3
20180921101149 54 1 7.0 14.0 0.00 1.28 0.00 78 1012.1
20180921100149 54 9 8.0 14.0 0.00 1.31 0.00 80 1011.7
20180921095149 53 3 1.0 16.0 0.00 1.33 0.00 85 1011.6
20180921094149 52 8 5.0 16.0 0.00 1.34 0.00 87 1011.3
20180921093149 51 20 12.0 13.0 0.00 1.36 0.00 88 1010.9
20180921092149 51 40 3.0 18.0 0.00 1.37 0.00 86 1010.7
20180921091149 51 19 11.0 18.0 0.00 1.39 0.00 87 1010.2
20180921090149 50 6 10.0 18.0 0.00 1.40 0.00 87 1010.0
20180921085149 50 358 0.0 12.0 0.00 1.41 0.00 87 1010.0
20180921084149 50 354 0.0 11.0 0.00 1.43 0.00 85 1009.9
20180921083149 50 38 0.0 10.0 0.00 1.44 0.00 85 1009.9
20180921082149 50 289 0.0 15.0 0.00 1.44 0.00 85 1010.0
20180921081149 50 307 0.0 9.0 0.00 1.44 0.00 86 1009.8
20180921080149 49 61 0.0 6.0 0.00 1.45 0.00 87 1009.8
20180921075149 48 33 3.0 5.0 0.00 1.45 0.00 87 1009.7
20180921074152 47 65 0.0 10.0 0.00 1.45 0.00 88 1009.6
20180921073149 47 34 2.0 9.0 0.00 1.45 0.00 88 1009.4
20180921072149 47 320 1.0 9.0 0.00 1.45 0.00 88 1009.3
20180921071149 46 33 8.0 9.0 0.00 1.45 0.00 89 1009.3
20180921070152 46 12 2.0 10.0 0.00 1.45 0.00 89 1009.2
20180921065149 46 81 2.0 11.0 0.00 1.45 0.00 89 1009.2
20180921064149 46 340 3.0 7.0 0.00 1.45 0.00 90 1009.0
20180921063149 45 26 2.0 7.0 0.00 1.45 0.00 91 1009.0
20180921062149 45 59 0.0 4.0 0.00 1.45 0.00 91 1008.9
20180921061149 45 317 0.0 7.0 0.00 1.45 0.00 91 1008.7
20180921060149 45 224 0.0 3.0 0.00 1.45 0.00 91 1008.8
20180921055149 45 355 0.0 3.0 0.00 1.45 0.00 91 1008.6
20180921054153 45 326 0.0 4.0 0.00 1.45 0.00 91 1008.5
20180921053149 45 290 0.0 7.0 0.00 1.45 0.00 91 1008.4
20180921052149 45 340 0.0 4.0 0.00 1.45 0.00 91 1008.3
20180921051152 45 356 0.0 9.0 0.00 1.45 0.00 91 1008.2
20180921050149 45 311 3.0 7.0 0.00 1.45 0.00 92 1008.2